This is the latest recevied weather packets stored in our database for station/object W6UA-13. If no packets are shown the sender has not sent any weather packets the latest 10 day(s).
| Time | Temp. | Humidity | Pressure | Rain* | Wind** | Luminosity | Snow |
|---|---|---|---|---|---|---|---|
| 1777664988 | 17.22° C | 71% | 1015.3 hPa | 0 mm | - | 891 W/m² | - |
| 1777664088 | 16.67° C | 73% | 1015.4 hPa | 0 mm | - | 907 W/m² | - |
| 1777663188 | 16.67° C | 73% | 1015.5 hPa | 0 mm | - | 728 W/m² | - |
| 1777662288 | 16.11° C | 74% | 1015.7 hPa | 0 mm | - | 476 W/m² | - |
| 1777661388 | 15.56° C | 75% | 1015.9 hPa | 0 mm | - | 436 W/m² | - |
| 1777660488 | 15.56° C | 77% | 1015.9 hPa | 0 mm | - | 548 W/m² | - |
| 1777659588 | 15.56° C | 76% | 1015.6 hPa | 0 mm | - | 650 W/m² | - |
| 1777658688 | 15.56° C | 77% | 1015.5 hPa | 0 mm | - | 501 W/m² | - |
| 1777657788 | 15° C | 78% | 1015.7 hPa | 0 mm | - | 582 W/m² | - |
| 1777656888 | 14.44° C | 80% | 1015.7 hPa | 0 mm | - | 325 W/m² | - |
| 1777655988 | 13.89° C | 81% | 1015.8 hPa | 0 mm | - | 276 W/m² | - |
| 1777655088 | 13.33° C | 82% | 1015.8 hPa | 0 mm | - | 255 W/m² | - |
| 1777654188 | 13.33° C | 82% | 1015.8 hPa | 0 mm | - | 209 W/m² | - |
| 1777653288 | 13.33° C | 83% | 1015.7 hPa | 0 mm | - | 178 W/m² | - |
| 1777652388 | 12.78° C | 85% | 1015.6 hPa | 0 mm | - | 146 W/m² | - |
| 1777651488 | 12.78° C | 86% | 1015.5 hPa | 0 mm | - | 120 W/m² | - |
| 1777650588 | 12.22° C | 87% | 1015.4 hPa | 0 mm | - | 128 W/m² | - |
| 1777649688 | 12.22° C | 88% | 1015.3 hPa | 0 mm | - | 114 W/m² | - |
| 1777648788 | 11.67° C | 89% | 1015.2 hPa | 0 mm | - | 93 W/m² | - |
| 1777647888 | 11.67° C | 89% | 1014.9 hPa | 0 mm | - | 81 W/m² | - |
| 1777646988 | 11.67° C | 89% | 1014.8 hPa | 0 mm | - | 65 W/m² | - |
| 1777646088 | 11.11° C | 89% | 1014.7 hPa | 0 mm | - | 47 W/m² | - |
| 1777645188 | 11.11° C | 89% | 1014.6 hPa | 0 mm | - | 32 W/m² | - |
| 1777644288 | 11.11° C | 89% | 1014.5 hPa | 0 mm | - | 21 W/m² | - |
| 1777643388 | 11.11° C | 89% | 1014.4 hPa | 0 mm | - | 11 W/m² | - |
* Rain latest hour (hover to see other rain measurements)
** Current wind speed in m/s (hover to see current wind gust speed)